Weather in Edermeg

Russia / Republic of Buryatia     51°41′28″N   109°39′37″E
temp.,
°C
wind,
m/s
gust,
m/s
humid.,
%
clouds,
%
prec.,
mm/h
press.,
hPa
HPBL,
m
6 march, sat
sat623:00−20nne119769 0.0 103220
02:00−22nne119982 0.0 103120
05:00−22n119991 0.0 102920
08:00−19nw119696 0.0 102929
11:00−11wsw257983 0.0 1027415
14:00−5w378043 0.0 1024558
17:00−5wsw36820 0.0 1024418
20:00−10sw33912 0.0 102640
7 march, sun
sun723:00−11sw338991 0.0 102655
02:00−13sw228945 0.0 102722
05:00−15s01900 0.0 102520
08:00−15se01928 0.0 102620
11:00−8nne118498 0.0 1022183
14:00−3e028181 0.0 1019359
17:00−2sw038516 0.0 1017252
20:00−8s118827 0.0 101921
8 march, mon
mon823:00−8sw128998 0.0 102021
02:00−8sw229198 0.0 101931
05:00−9sw2290100 0.0 102027
08:00−10wsw229083 0.0 102227
11:00−3wsw368121 0.0 1020399
14:000w5127111 0.0 10201741
17:00−2wnw5108072 0.2 10211078
20:00−7w358969 0.4 102695
9 march, tue
tue923:00−10sw34900 0.0 102874
02:00−13sw22900 0.0 103021
05:00−15ene11904 0.0 102920
08:00−16ne119511 0.0 102820
11:00−9nne228649 0.0 1023215
14:00−5nne228571 0.0 1018268
17:00−4ne1190100 0.0 1017106
20:00−7w1194100 0.0 102021
10 march, wed
wed1023:00−7wsw2294100 0.0 102328
02:00−9wsw239274 0.0 102534
05:00−10wsw239229 0.0 102737
08:00−10sw239215 0.0 102943
11:00−2wsw25750 0.0 1027441
14:000wsw34730 0.0 1024958
17:000ssw13790 0.0 1023332
20:00−7se11850 0.0 102421